Location: Joplin
(37.0842°N, 94.5131°W)
Time: 01:24:07
(UTC-06:00)

ISS - Pass Details

Date: 25 January 2019
Orbit: 403 x 411 km, 51.6° (Epoch: 22 February)

Event Time Altitude Azimuth Distance (km) Brightness Sun altitude
Rises 19:10:27 0° 275° (W) 2,327 1.5 -19.0°
Reaches altitude 10° 19:13:15 10° 301° (WNW) 1,472 -0.3 -19.6°
Maximum altitude 19:15:10 14° 336° (NNW) 1,234 -1.2 -19.9°
Enters shadow 19:15:55 14° 352° (N) 1,275 -1.3 -20.1°
